Terug naar catalogus

FENGYUN 1C DEB

ActiefPO
NORAD 29871·DEBRIS·🇨🇳 China

Gelanceerd May 10, 1999 vanaf Taiyuan Satellite Launch Center

Loading…

Volgende Passages (komende 24 uur)

TLE

VersSource: Space-Track

Epoch: Sep 14, 2026, 09:37 UTC

1 29871U 99025FR  26257.40123175  .00002027  00000-0  59395-3 0  9992
2 29871  99.0000 230.7197 0057342  11.0532 145.1076 14.44146644 26784

Volg FENGYUN 1C DEB in realtime met AllMySat

Download on the App Store